Regional Weather Roundup
Issued by NWS

Home | Current Version | Previous Version | Text Only | Print | Product List | Glossary On
Versions: 1 2 3 4 5 6 7 8 9 10 11 12 13 14 15 16 17 18 19 20 21 22 23 24 25 26 27 28 29 30 31 32 33 34 35 36 37 38 39 40 41 42 43 44 45 46 47 48 49 50
000
ASUS45 KCYS 290910
RWRWY

WYOMING REGIONAL WEATHER ROUNDUP
NATIONAL WEATHER SERVICE CHEYENNE WY
300 AM MDT MON AUG 29 2016

NOTE:  "FAIR" INDICATES FEW OR NO CLOUDS BELOW 12,000 FEET
WITH NO SIGNIFICANT WEATHER AND/OR OBSTRUCTIONS TO VISIBILITY.

WYZ001-291000-
YELLOWSTONE NATIONAL PARK

CITY           SKY/WX    TMP DP  RH WIND       PRES   REMARKS
LK YELLOWSTONE   N/A     39  33  79 NW3       30.49R
W YELLOWSTONE  NOT AVBL

$$
WYZ002>013-054>058-071-098>099-291000-
NORTHERN WYOMING

CITY           SKY/WX    TMP DP  RH WIND       PRES   REMARKS
JACKSON        FAIR      45  32  61 NE6       30.38R
CODY           FAIR      59  39  47 CALM      30.29S
GREYBULL       FAIR      69  41  36 NW10      30.18R
WORLAND        FAIR      58  30  34 S5        30.21R
SHERIDAN       FAIR      59  48  67 CALM      30.21R
BUFFALO        FAIR      68  34  28 NW5       30.27R
GILLETTE       FAIR      50  41  71 CALM      30.20R
HULETT         FAIR      63  43  48 N3        30.20S
NEWCASTLE      FAIR      61  39  44 NW6       30.17R

$$
WYZ014>020-022>026-101>103-291000-
CENTRAL WYOMING

CITY           SKY/WX    TMP DP  RH WIND       PRES   REMARKS
BIG PINEY      FAIR      47  28  47 N7        30.38R
PINEDALE       FAIR      43  32  65 N3        30.39S
DUBOIS         FAIR      48  27  43 W10       30.41R
LANDER         FAIR      60  33  36 W6        30.27R
RIVERTON       FAIR      61  31  32 NE6       30.28R
CASPER         FAIR      53  37  54 W7        30.26R
DOUGLAS        FAIR      51  42  71 CALM      30.22R

$$
WYZ021-027>030-104>119-291000-
SOUTHERN WYOMING

CITY           SKY/WX    TMP DP  RH WIND       PRES   REMARKS
EVANSTON       FAIR      55  28  35 SE7       30.39S
FORT BRIDGER   FAIR      60  28  30 SW6       30.41R
ROCK SPRINGS   FAIR      56  25  30 W7        30.34R
DIXON          FAIR      49  34  56 CALM      30.37R
RAWLINS        FAIR      47  27  45 NE3       30.35R
SARATOGA       FAIR      52  37  58 S12       30.38R
LARAMIE        FAIR      47  40  76 SE10      30.36R
CHEYENNE       FAIR      59  43  55 W8        30.28S
TORRINGTON     FAIR      58  45  62 E7        30.16R
PINE BLUFFS    FAIR      54  46  76 CALM      30.25R

$$



USA.gov is the U.S. government's official web portal to all federal, state and local government web resources and services.